Change the Weather History Date:

Saturday, January 18, 2014

  Actual Average Record
Temperature  
Mean Temperature 36 °F -  
Max Temperature 54 °F 42 °F 59 °F (2015)
Min Temperature 19 °F 19 °F 0 °F (2002)
Degree Days  
Heating Degree Days 28    
Moisture  
Dew Point 6 °F    
Average Humidity 40    
Maximum Humidity 65    
Minimum Humidity 9    
Precipitation  
Precipitation 0.00 in - - ()
Sea Level Pressure  
Sea Level Pressure 30.23 in    
Wind  
Wind Speed 9 mph (North)    
Max Wind Speed 18 mph    
Max Gust Speed 24 mph    
Visibility 10 miles    
Events      
Averages and records for this station are not official NWS values.
T = Trace of Precipitation, MM = Missing Value Source: NWS Daily Summary

Daily Weather History Graph

Daily Weather History Graph

Search for Another Location

Airport or City:

Trip Planner

Search our weather history database for the weather conditions in past years. The results will help you decide how hot, cold, wet, or windy it might be!

Date:

Astronomy

Jan. 18, 2014 Rise Set
Actual Time 7:15 AM MST 5:04 PM MST
Civil Twilight 6:46 AM MST 5:33 PM MST
Nautical Twilight 6:13 AM MST 6:06 PM MST
Astronomical Twilight 5:41 AM MST 6:38 PM MST
Moon 7:47 PM MST (1/18) 8:17 AM MST (1/18)
Length of Visible Light 10h 47m
Length of Day
9h 49m
Waning Gibbous, 94% of the Moon is Illuminated
Jan 18
Waning Gibbous
Jan 23
Last Quarter
Jan 30
New
Feb 6
First Quarter
Feb 14
Full

Hourly Weather History & Observations

Time (MST) Temp. Windchill Dew Point Humidity Pressure Visibility Wind Dir Wind Speed Gust Speed Precip Events Conditions
12:58 AM 19.0 °F 7.5 °F 9.0 °F 65% 30.13 in 10.0 mi North 10.4 mph - N/A   Clear
1:58 AM 19.9 °F 12.1 °F 9.1 °F 63% 30.16 in 10.0 mi North 5.8 mph - N/A   Clear
2:58 AM 22.1 °F 15.9 °F 8.4 °F 56% 30.16 in 10.0 mi NNW 4.6 mph - N/A   Clear
3:58 AM 21.0 °F 11.4 °F 7.5 °F 56% 30.15 in 10.0 mi North 8.1 mph - N/A   Clear
4:58 AM 22.6 °F 18.0 °F 7.5 °F 52% 30.17 in 10.0 mi NNE 3.5 mph - N/A   Clear
5:58 AM 23.7 °F 17.8 °F 7.3 °F 50% 30.19 in 10.0 mi NNE 4.6 mph - N/A   Clear
6:58 AM 20.7 °F 11.0 °F 7.7 °F 57% 30.28 in 10.0 mi NNE 8.1 mph - N/A   Clear
7:58 AM 23.7 °F 12.6 °F 8.1 °F 51% 30.30 in 10.0 mi North 11.5 mph - N/A   Clear
8:58 AM 31.6 °F 25.1 °F 10.0 °F 41% 30.28 in 10.0 mi North 6.9 mph - N/A   Clear
9:58 AM 45.0 °F 41.8 °F 8.6 °F 23% 30.24 in 10.0 mi NE 5.8 mph - N/A   Clear
10:58 AM 51.3 °F - 2.1 °F 13% 30.22 in 10.0 mi North 9.2 mph - N/A   Clear
11:26 AM 51.8 °F - -2.2 °F 11% 30.20 in 10.0 mi NNW 15.0 mph 24.2 mph N/A   Clear
11:58 AM 52.3 °F - -6.0 °F 9% 30.17 in 10.0 mi North 16.1 mph - N/A   Clear
12:58 PM 53.4 °F - -6.0 °F 9% 30.17 in 10.0 mi NNE 18.4 mph - N/A   Clear
1:58 PM 54.1 °F - -4.5 °F 9% 30.17 in 10.0 mi NNE 16.1 mph 24.2 mph N/A   Clear
2:58 PM 51.8 °F - 5.7 °F 15% 30.19 in 10.0 mi NE 12.7 mph - N/A   Clear
3:58 PM 48.2 °F - 7.7 °F 19% 30.25 in 10.0 mi NNE 10.4 mph - N/A   Clear
4:58 PM 40.6 °F 35.4 °F 9.5 °F 28% 30.29 in 10.0 mi NNE 8.1 mph - N/A   Clear
5:58 PM 32.2 °F 27.7 °F 9.3 °F 39% 30.34 in 10.0 mi North 4.6 mph - N/A   Clear
6:58 PM 27.5 °F 21.1 °F 10.2 °F 48% 30.37 in 10.0 mi NNE 5.8 mph - N/A   Clear
7:58 PM 23.7 °F 15.6 °F 10.2 °F 56% 30.39 in 10.0 mi North 6.9 mph - N/A   Clear
8:58 PM 22.6 °F 15.3 °F 10.2 °F 59% 30.32 in 10.0 mi NNW 5.8 mph - N/A   Clear
9:58 PM 22.1 °F 13.7 °F 10.0 °F 60% 30.25 in 10.0 mi North 6.9 mph - N/A   Clear
10:58 PM 21.7 °F 10.8 °F 10.0 °F 61% 30.20 in 10.0 mi North 10.4 mph - N/A   Clear
11:58 PM 21.6 °F 13.0 °F 9.0 °F 58% 30.18 in 10.0 mi North 6.9 mph - N/A   Clear